GW0118 Weather Reports


time (UTC)temp
C
wind
direction
speed
KPH
gust
KPH
rain 1hr
cm
rain 24hr
cm
rain mn
cm
humidity
%
barometer
mb
20260903124615 32 253 9.7 24.1 0.00 0.00 0.00 19 1026.9
20260903123107 31 27 3.2 22.5 0.00 0.00 0.00 21 1027.0
20260903121606 31 210 6.4 17.7 0.00 0.00 0.00 20 1027.3
20260903120110 31 245 14.5 22.5 0.00 0.00 0.00 22 1027.3
20260903114600 31 304 6.4 19.3 0.00 0.00 0.00 21 1027.3
20260903113144 31 252 4.8 24.1 0.00 0.00 0.00 22 1027.5
20260903111604 31 190 6.4 11.3 0.00 0.00 0.00 25 1027.5
20260903110109 30 154 8.0 19.3 0.00 0.00 0.00 25 1027.6
20260903104622 30 210 9.7 19.3 0.00 0.00 0.00 27 1027.8
20260903103106 29 245 8.0 12.9 0.00 0.00 0.00 29 1027.8
20260903101617 29 252 8.0 14.5 0.00 0.00 0.00 30 1027.9
20260903100103 28 219 4.8 12.9 0.00 0.00 0.00 33 1028.0
20260903094601 27 240 1.6 6.4 0.00 0.00 0.00 38 1027.9
20260903093106 27 259 0.0 4.8 0.00 0.00 0.00 44 1027.9
20260903091605 26 0 0.0 3.2 0.00 0.00 0.00 47 1028.0
20260903090105 25 0 0.0 3.2 0.00 0.00 0.00 50 1027.8
20260903084610 23 36 1.6 3.2 0.00 0.00 0.00 56 1027.9
20260903083103 22 51 0.0 3.2 0.00 0.00 0.00 59 1027.8
20260903081603 21 32 3.2 6.4 0.00 0.00 0.00 62 1027.9
20260903080103 21 55 1.6 4.8 0.00 0.00 0.00 63 1027.9
20260903074558 20 56 0.0 1.6 0.00 0.00 0.00 64 1027.8
20260903073109 18 0 0.0 0.0 0.00 0.00 0.00 65 1027.9
20260903071610 17 0 0.0 1.6 0.00 0.00 0.00 67 1028.0
20260903070100 17 0 0.0 1.6 0.00 0.00 0.00 68 1027.8
20260903064614 15 0 0.0 4.8 0.00 0.00 0.00 74 1027.8
20260903063106 15 70 1.6 6.4 0.00 0.00 0.00 73 1027.7
20260903061607 15 68 0.0 3.2 0.00 0.00 0.00 72 1027.7
20260903060108 15 120 0.0 1.6 0.00 0.00 0.00 74 1027.4
20260903054603 15 0 0.0 1.6 0.00 0.00 0.00 73 1027.3
20260903053102 15 0 0.0 0.0 0.00 0.00 0.00 72 1027.2
20260903051616 15 0 0.0 0.0 0.00 0.00 0.00 72 1027.0
20260903044604 16 0 0.0 0.0 0.00 0.00 0.00 70 1027.0
20260903043207 16 0 0.0 1.6 0.00 0.00 0.00 70 1026.9
20260903041607 16 0 0.0 1.6 0.00 0.00 0.00 70 1026.8
20260903034602 16 125 3.2 6.4 0.00 0.00 0.00 69 1026.9
20260903033100 17 115 0.0 3.2 0.00 0.00 0.00 65 1026.8
20260903031603 18 0 0.0 3.2 0.00 0.00 0.00 64 1026.8
20260903030103 18 0 0.0 4.8 0.00 0.00 0.00 63 1026.9
20260903024607 18 92 0.0 3.2 0.00 0.00 0.00 64 1026.9
20260903023101 18 0 0.0 1.6 0.00 0.00 0.00 63 1026.8
20260903021603 19 0 0.0 6.4 0.00 0.00 0.00 60 1026.9
20260903020106 20 102 0.0 6.4 0.00 0.00 0.00 61 1026.7
20260903014604 20 70 1.6 4.8 0.00 0.00 0.00 60 1026.7
20260903013109 20 117 1.6 6.4 0.00 0.00 0.00 60 1026.7
20260903011608 20 58 1.6 6.4 0.00 0.00 0.00 59 1026.7
20260903010108 20 58 3.2 9.7 0.00 0.00 0.00 59 1026.8
20260903004607 20 93 1.6 8.0 0.00 0.00 0.00 58 1026.8
20260903003105 21 110 4.8 9.7 0.00 0.00 0.00 57 1026.9
20260903001603 21 70 4.8 8.0 0.00 0.00 0.00 57 1027.0
20260903000112 21 140 1.6 6.4 0.00 0.00 0.00 57 1027.0
20260902234618 21 65 3.2 8.0 0.00 0.00 0.00 56 1026.9
20260902233105 21 61 4.8 12.9 0.00 0.00 0.00 55 1027.0
20260902231617 21 63 6.4 12.9 0.00 0.00 0.00 55 1027.0
20260902230108 21 68 6.4 12.9 0.00 0.00 0.00 54 1027.0
20260902224612 22 89 6.4 11.3 0.00 0.00 0.00 54 1026.9
20260902223107 22 98 4.8 11.3 0.00 0.00 0.00 54 1026.7
20260902221609 22 72 3.2 6.4 0.00 0.00 0.00 53 1026.7
20260902220113 22 111 1.6 9.7 0.00 0.00 0.00 52 1026.9
20260902214603 22 60 3.2 8.0 0.00 0.00 0.00 50 1026.7
20260902213129 22 84 3.2 8.0 0.00 0.00 0.00 47 1026.6
20260902211605 22 107 3.2 4.8 0.00 0.00 0.00 42 1026.6
20260902210104 22 101 0.0 3.2 0.00 0.00 0.00 35 1026.6
20260902204606 22 0 1.6 14.5 0.00 0.00 0.00 34 1026.5
20260902203108 22 54 0.0 3.2 0.00 0.00 0.00 36 1026.3
20260902201608 23 238 1.6 9.7 0.00 0.00 0.00 35 1026.0
20260902200136 24 0 1.6 4.8 0.00 0.00 0.00 31 1025.9
20260902194603 25 328 0.0 1.6 0.00 0.00 0.00 31 1025.8
20260902193106 26 0 0.0 0.0 0.00 0.00 0.00 30 1025.3
20260902191614 27 146 0.0 3.2 0.00 0.00 0.00 28 1025.2
20260902190116 27 167 1.6 1.6 0.00 0.00 0.00 27 1024.9
20260902184657 28 0 1.6 4.8 0.00 0.00 0.00 26 1024.8
20260902183118 30 217 4.8 8.0 0.00 0.00 0.00 25 1024.7
20260902181605 31 200 3.2 8.0 0.00 0.00 0.00 23 1024.7
20260902180131 31 264 4.8 17.7 0.00 0.00 0.00 22 1024.6
20260902174611 31 233 8.0 17.7 0.00 0.00 0.00 22 1024.5
20260902173103 31 239 8.0 19.3 0.00 0.00 0.00 22 1024.5
20260902171608 32 252 8.0 19.3 0.00 0.00 0.00 21 1024.4
20260902170118 32 260 9.7 20.9 0.00 0.00 0.00 22 1024.3
20260902164621 32 236 9.7 19.3 0.00 0.00 0.00 22 1024.3
20260902163103 32 259 12.9 24.1 0.00 0.00 0.00 23 1024.3
20260902161600 32 203 9.7 20.9 0.00 0.00 0.00 22 1024.4
20260902160108 32 259 8.0 20.9 0.00 0.00 0.00 23 1024.5
20260902154615 32 257 11.3 19.3 0.00 0.00 0.00 21 1024.6
20260902153102 32 205 12.9 27.4 0.00 0.00 0.00 20 1024.6
20260902151607 32 260 6.4 25.7 0.00 0.00 0.00 21 1024.7
20260902150105 31 285 9.7 17.7 0.00 0.00 0.00 20 1024.7
20260902144604 31 269 12.9 27.4 0.00 0.00 0.00 20 1024.8
20260902143103 31 246 16.1 30.6 0.00 0.00 0.00 21 1024.8
20260902141615 31 283 9.7 25.7 0.00 0.00 0.00 20 1024.8
20260902140105 31 238 11.3 22.5 0.00 0.00 0.00 20 1024.9
20260902134608 31 248 14.5 25.7 0.00 0.00 0.00 20 1025.0
20260902133104 31 292 11.3 24.1 0.00 0.00 0.00 21 1025.0
20260902131608 31 277 11.3 20.9 0.00 0.00 0.00 25 1025.1